| time (UTC) | temp C | wind direction | speed KPH | gust KPH | rain 1hr cm | rain 24hr cm | rain mn cm | humidity % | barometer mb |
| 20260507152018 | 10 | 360 | 4.8 | 0.0 | 0.00 | 0.00 | 0.00 | 38 | 1013.2 |
| 20260507151517 | 9 | 360 | 4.8 | 0.0 | 0.00 | 0.00 | 0.00 | 38 | 1013.2 |
| 20260507151015 | 9 | 360 | 4.8 | 0.0 | 0.00 | 0.00 | 0.00 | 38 | 1013.2 |
| 20260507150517 | 9 | 360 | 4.8 | 0.0 | 0.00 | 0.00 | 0.00 | 38 | 1013.3 |
| 20260507150013 | 8 | 360 | 3.2 | 0.0 | 0.00 | 0.00 | 0.00 | 39 | 1013.4 |
| 20260507145512 | 8 | 360 | 3.2 | 0.0 | 0.00 | 0.00 | 0.00 | 39 | 1013.4 |
| 20260507145011 | 8 | 360 | 3.2 | 0.0 | 0.00 | 0.00 | 0.00 | 39 | 1013.5 |
| 20260507144509 | 8 | 360 | 1.6 | 0.0 | 0.00 | 0.00 | 0.00 | 39 | 1013.6 |
| 20260507144008 | 7 | 360 | 1.6 | 0.0 | 0.00 | 0.00 | 0.00 | 41 | 1013.6 |
| 20260507143005 | 7 | 360 | 1.6 | 0.0 | 0.00 | 0.00 | 0.00 | 41 | 1013.6 |
| 20260507142504 | 6 | 360 | 1.6 | 0.0 | 0.00 | 0.00 | 0.00 | 42 | 1013.6 |
| 20260507142006 | 6 | 360 | 1.6 | 0.0 | 0.00 | 0.00 | 0.00 | 44 | 1013.6 |
| 20260507141502 | 6 | 360 | 1.6 | 0.0 | 0.00 | 0.00 | 0.00 | 45 | 1013.6 |
| 20260507141002 | 6 | 360 | 1.6 | 0.0 | 0.00 | 0.00 | 0.00 | 45 | 1013.6 |
| 20260507140600 | 6 | 360 | 1.6 | 0.0 | 0.00 | 0.00 | 0.00 | 46 | 1013.6 |
| 20260507140122 | 5 | 360 | 0.0 | 0.0 | 0.00 | 0.00 | 0.00 | 48 | 1013.5 |
| 20260507135557 | 5 | 360 | 0.0 | 0.0 | 0.00 | 0.00 | 0.00 | 50 | 1013.5 |
| 20260507135055 | 4 | 360 | 1.6 | 0.0 | 0.00 | 0.00 | 0.00 | 50 | 1013.6 |
| 20260507134555 | 3 | 360 | 1.6 | 0.0 | 0.00 | 0.00 | 0.00 | 49 | 1013.5 |
| 20260507134054 | 3 | 360 | 0.0 | 0.0 | 0.00 | 0.00 | 0.00 | 51 | 1013.5 |
| 20260507133656 | 3 | 360 | 0.0 | 0.0 | 0.00 | 0.00 | 0.00 | 54 | 1013.5 |
| 20260507133053 | 2 | 360 | 0.0 | 0.0 | 0.00 | 0.00 | 0.00 | 55 | 1013.5 |
| 20260507132651 | 2 | 360 | 0.0 | 0.0 | 0.00 | 0.00 | 0.00 | 56 | 1013.5 |
| 20260507132050 | 2 | 360 | 0.0 | 0.0 | 0.00 | 0.00 | 0.00 | 57 | 1013.6 |
| 20260507131601 | 1 | 360 | 0.0 | 0.0 | 0.00 | 0.00 | 0.00 | 59 | 1013.5 |
| 20260507131052 | 1 | 360 | 0.0 | 0.0 | 0.00 | 0.00 | 0.00 | 61 | 1013.6 |
| 20260507130546 | 0 | 360 | 0.0 | 0.0 | 0.00 | 0.00 | 0.00 | 64 | 1013.6 |
| 20260507130051 | 0 | 360 | 0.0 | 0.0 | 0.00 | 0.00 | 0.00 | 66 | 1013.7 |
| 20260507125544 | -1 | 360 | 0.0 | 0.0 | 0.00 | 0.00 | 0.00 | 65 | 1013.7 |
| 20260507125042 | -1 | 360 | 0.0 | 0.0 | 0.00 | 0.00 | 0.00 | 66 | 1013.8 |
| 20260507124552 | -1 | 360 | 0.0 | 0.0 | 0.00 | 0.00 | 0.00 | 68 | 1013.6 |
| 20260507124040 | -2 | 360 | 0.0 | 0.0 | 0.00 | 0.00 | 0.00 | 70 | 1013.6 |
| 20260507123639 | -2 | 360 | 0.0 | 0.0 | 0.00 | 0.00 | 0.00 | 71 | 1013.5 |
| 20260507123052 | -3 | 360 | 0.0 | 0.0 | 0.00 | 0.00 | 0.00 | 71 | 1013.5 |
| 20260507122640 | -3 | 360 | 0.0 | 0.0 | 0.00 | 0.00 | 0.00 | 72 | 1013.4 |
| 20260507122036 | -4 | 360 | 0.0 | 0.0 | 0.00 | 0.00 | 0.00 | 72 | 1013.3 |
| 20260507121541 | -5 | 360 | 0.0 | 0.0 | 0.00 | 0.00 | 0.00 | 73 | 1013.3 |
| 20260507121033 | -5 | 360 | 1.6 | 0.0 | 0.00 | 0.00 | 0.00 | 73 | 1013.2 |
| 20260507120533 | -5 | 360 | 3.2 | 0.0 | 0.00 | 0.00 | 0.00 | 73 | 1013.2 |
| 20260507120032 | -6 | 360 | 3.2 | 0.0 | 0.00 | 0.00 | 0.00 | 72 | 1013.3 |
| 20260507115533 | -6 | 360 | 3.2 | 0.0 | 0.00 | 0.00 | 0.00 | 73 | 1013.2 |
| 20260507115031 | -6 | 360 | 3.2 | 0.0 | 0.00 | 0.00 | 0.00 | 73 | 1013.3 |
| 20260507114531 | -7 | 360 | 3.2 | 0.0 | 0.00 | 0.00 | 0.00 | 73 | 1013.2 |
| 20260507114031 | -7 | 360 | 3.2 | 0.0 | 0.00 | 0.00 | 0.00 | 72 | 1013.2 |
| 20260507113631 | -7 | 360 | 3.2 | 0.0 | 0.00 | 0.00 | 0.00 | 71 | 1013.1 |
| 20260507113035 | -7 | 360 | 1.6 | 0.0 | 0.00 | 0.00 | 0.00 | 70 | 1013.1 |
| 20260507112532 | -7 | 360 | 1.6 | 0.0 | 0.00 | 0.00 | 0.00 | 70 | 1013.2 |
| 20260507112031 | -7 | 360 | 1.6 | 0.0 | 0.00 | 0.00 | 0.00 | 71 | 1013.2 |
| 20260507111532 | -7 | 360 | 3.2 | 0.0 | 0.00 | 0.00 | 0.00 | 70 | 1013.2 |
| 20260507111030 | -7 | 360 | 3.2 | 0.0 | 0.00 | 0.00 | 0.00 | 69 | 1013.1 |
| 20260507110530 | -7 | 360 | 3.2 | 0.0 | 0.00 | 0.00 | 0.00 | 69 | 1013.3 |
| 20260507110029 | -7 | 360 | 3.2 | 0.0 | 0.00 | 0.00 | 0.00 | 69 | 1013.3 |
| 20260507105528 | -7 | 360 | 3.2 | 0.0 | 0.00 | 0.00 | 0.00 | 70 | 1013.0 |
| 20260507105027 | -7 | 360 | 3.2 | 0.0 | 0.00 | 0.00 | 0.00 | 68 | 1013.0 |
| 20260507104526 | -7 | 360 | 1.6 | 0.0 | 0.00 | 0.00 | 0.00 | 67 | 1012.9 |
| 20260507104027 | -6 | 360 | 3.2 | 0.0 | 0.00 | 0.00 | 0.00 | 68 | 1013.0 |
| 20260507103630 | -6 | 360 | 3.2 | 0.0 | 0.00 | 0.00 | 0.00 | 69 | 1013.0 |
| 20260507103024 | -6 | 360 | 1.6 | 0.0 | 0.00 | 0.00 | 0.00 | 67 | 1013.0 |
| 20260507102523 | -6 | 360 | 0.0 | 0.0 | 0.00 | 0.00 | 0.00 | 68 | 1013.0 |
| 20260507102023 | -6 | 360 | 0.0 | 0.0 | 0.00 | 0.00 | 0.00 | 68 | 1013.0 |
| 20260507101530 | -6 | 360 | 0.0 | 0.0 | 0.00 | 0.00 | 0.00 | 67 | 1013.0 |
| 20260507101023 | -6 | 360 | 0.0 | 0.0 | 0.00 | 0.00 | 0.00 | 66 | 1013.0 |
| 20260507100522 | -6 | 360 | 0.0 | 0.0 | 0.00 | 0.00 | 0.00 | 66 | 1013.0 |
| 20260507100031 | -6 | 360 | 0.0 | 0.0 | 0.00 | 0.00 | 0.00 | 68 | 1013.0 |
| 20260507095522 | -6 | 360 | 0.0 | 0.0 | 0.00 | 0.00 | 0.00 | 69 | 1012.9 |
| 20260507095021 | -7 | 360 | 0.0 | 0.0 | 0.00 | 0.00 | 0.00 | 67 | 1013.1 |
| 20260507094522 | -7 | 360 | 0.0 | 0.0 | 0.00 | 0.00 | 0.00 | 66 | 1013.1 |
| 20260507094019 | -6 | 360 | 0.0 | 0.0 | 0.00 | 0.00 | 0.00 | 66 | 1013.0 |
| 20260507093619 | -6 | 360 | 0.0 | 0.0 | 0.00 | 0.00 | 0.00 | 64 | 1013.0 |
| 20260507093103 | -6 | 360 | 0.0 | 0.0 | 0.00 | 0.00 | 0.00 | 65 | 1012.9 |
| 20260507092600 | -6 | 360 | 1.6 | 0.0 | 0.00 | 0.00 | 0.00 | 64 | 1013.0 |
| 20260507092059 | -6 | 360 | 1.6 | 0.0 | 0.00 | 0.00 | 0.00 | 65 | 1013.0 |
| 20260507091606 | -6 | 360 | 1.6 | 0.0 | 0.00 | 0.00 | 0.00 | 66 | 1013.0 |
| 20260507091059 | -6 | 360 | 1.6 | 0.0 | 0.00 | 0.00 | 0.00 | 66 | 1013.0 |
| 20260507090558 | -6 | 360 | 3.2 | 0.0 | 0.00 | 0.00 | 0.00 | 65 | 1012.9 |
| 20260507090005 | -6 | 360 | 3.2 | 0.0 | 0.00 | 0.00 | 0.00 | 65 | 1012.9 |
| 20260507085504 | -6 | 360 | 3.2 | 0.0 | 0.00 | 0.00 | 0.00 | 65 | 1013.0 |
| 20260507085004 | -6 | 360 | 3.2 | 0.0 | 0.00 | 0.00 | 0.00 | 66 | 1012.9 |
| 20260507084502 | -6 | 360 | 3.2 | 0.0 | 0.00 | 0.00 | 0.00 | 66 | 1013.0 |
| 20260507084004 | -6 | 360 | 3.2 | 0.0 | 0.00 | 0.00 | 0.00 | 65 | 1013.0 |
| 20260507083503 | -6 | 360 | 3.2 | 0.0 | 0.00 | 0.00 | 0.00 | 65 | 1012.9 |
| 20260507083002 | -7 | 360 | 3.2 | 0.0 | 0.00 | 0.00 | 0.00 | 64 | 1012.9 |
| 20260507082501 | -6 | 360 | 3.2 | 0.0 | 0.00 | 0.00 | 0.00 | 63 | 1013.0 |
| 20260507082100 | -6 | 360 | 1.6 | 0.0 | 0.00 | 0.00 | 0.00 | 63 | 1013.0 |
| 20260507081559 | -6 | 360 | 1.6 | 0.0 | 0.00 | 0.00 | 0.00 | 63 | 1013.0 |
| 20260507081059 | -6 | 360 | 1.6 | 0.0 | 0.00 | 0.00 | 0.00 | 63 | 1013.0 |
| 20260507080600 | -6 | 360 | 1.6 | 0.0 | 0.00 | 0.00 | 0.00 | 62 | 1013.0 |
| 20260507075558 | -6 | 360 | 3.2 | 0.0 | 0.00 | 0.00 | 0.00 | 63 | 1013.0 |
| 20260507075058 | -6 | 360 | 3.2 | 0.0 | 0.00 | 0.00 | 0.00 | 62 | 1013.0 |
| 20260507074604 | -6 | 360 | 3.2 | 0.0 | 0.00 | 0.00 | 0.00 | 61 | 1013.0 |
| 20260507074059 | -6 | 360 | 3.2 | 0.0 | 0.00 | 0.00 | 0.00 | 61 | 1013.1 |
| 20260507073556 | -6 | 360 | 3.2 | 0.0 | 0.00 | 0.00 | 0.00 | 61 | 1013.1 |
| 20260507073106 | -6 | 360 | 3.2 | 0.0 | 0.00 | 0.00 | 0.00 | 61 | 1013.1 |
| 20260507072555 | -6 | 360 | 3.2 | 0.0 | 0.00 | 0.00 | 0.00 | 60 | 1013.1 |
| 20260507072056 | -6 | 360 | 3.2 | 0.0 | 0.00 | 0.00 | 0.00 | 59 | 1013.1 |
| 20260507071602 | -6 | 360 | 3.2 | 0.0 | 0.00 | 0.00 | 0.00 | 58 | 1013.1 |
| 20260507071051 | -5 | 360 | 3.2 | 0.0 | 0.00 | 0.00 | 0.00 | 58 | 1013.0 |
| 20260507070551 | -5 | 360 | 1.6 | 0.0 | 0.00 | 0.00 | 0.00 | 58 | 1013.0 |
| 20260507065552 | -5 | 360 | 1.6 | 0.0 | 0.00 | 0.00 | 0.00 | 58 | 1013.0 |
| 20260507065049 | -5 | 360 | 3.2 | 0.0 | 0.00 | 0.00 | 0.00 | 58 | 1013.0 |
| 20260507064554 | -5 | 360 | 3.2 | 0.0 | 0.00 | 0.00 | 0.00 | 57 | 1013.0 |
| 20260507064049 | -5 | 360 | 3.2 | 0.0 | 0.00 | 0.00 | 0.00 | 56 | 1013.0 |
| 20260507063549 | -5 | 360 | 3.2 | 0.0 | 0.00 | 0.00 | 0.00 | 57 | 1013.0 |
| 20260507063049 | -5 | 360 | 3.2 | 0.0 | 0.00 | 0.00 | 0.00 | 55 | 1012.9 |
| 20260507062547 | -5 | 360 | 3.2 | 0.0 | 0.00 | 0.00 | 0.00 | 55 | 1012.8 |
| 20260507062047 | -4 | 360 | 3.2 | 0.0 | 0.00 | 0.00 | 0.00 | 54 | 1012.9 |
| 20260507061547 | -3 | 360 | 3.2 | 0.0 | 0.00 | 0.00 | 0.00 | 54 | 1012.8 |
| 20260507061046 | -3 | 360 | 1.6 | 0.0 | 0.00 | 0.00 | 0.00 | 54 | 1012.9 |
| 20260507060546 | -3 | 360 | 1.6 | 0.0 | 0.00 | 0.00 | 0.00 | 54 | 1012.8 |
| 20260507055549 | -3 | 360 | 3.2 | 0.0 | 0.00 | 0.00 | 0.00 | 52 | 1012.8 |
| 20260507055049 | -3 | 360 | 3.2 | 0.0 | 0.00 | 0.00 | 0.00 | 51 | 1012.9 |
| 20260507054555 | -3 | 360 | 3.2 | 0.0 | 0.00 | 0.00 | 0.00 | 50 | 1012.9 |
| 20260507054048 | -3 | 360 | 1.6 | 0.0 | 0.00 | 0.00 | 0.00 | 50 | 1012.8 |
| 20260507053547 | -3 | 360 | 1.6 | 0.0 | 0.00 | 0.00 | 0.00 | 48 | 1012.9 |
| 20260507053049 | -2 | 360 | 1.6 | 0.0 | 0.00 | 0.00 | 0.00 | 46 | 1012.9 |
| 20260507052550 | -1 | 360 | 0.0 | 0.0 | 0.00 | 0.00 | 0.00 | 45 | 1012.9 |
| 20260507052046 | -1 | 360 | 0.0 | 0.0 | 0.00 | 0.00 | 0.00 | 45 | 1012.9 |
| 20260507051547 | 0 | 360 | 0.0 | 0.0 | 0.00 | 0.00 | 0.00 | 44 | 1012.9 |
| 20260507051045 | 0 | 360 | 0.0 | 0.0 | 0.00 | 0.00 | 0.00 | 44 | 1012.9 |
| 20260507050545 | 0 | 360 | 1.6 | 0.0 | 0.00 | 0.00 | 0.00 | 44 | 1013.0 |
| 20260507045542 | 0 | 360 | 1.6 | 0.0 | 0.00 | 0.00 | 0.00 | 44 | 1013.0 |
| 20260507045043 | 0 | 360 | 0.0 | 0.0 | 0.00 | 0.00 | 0.00 | 45 | 1013.0 |
| 20260507044543 | 0 | 360 | 1.6 | 0.0 | 0.00 | 0.00 | 0.00 | 46 | 1013.0 |
| 20260507044047 | 0 | 360 | 1.6 | 0.0 | 0.00 | 0.00 | 0.00 | 46 | 1013.0 |
| 20260507043543 | 0 | 360 | 3.2 | 0.0 | 0.00 | 0.00 | 0.00 | 44 | 1013.0 |
| 20260507043043 | 0 | 360 | 3.2 | 0.0 | 0.00 | 0.00 | 0.00 | 43 | 1013.1 |
| 20260507042541 | 0 | 360 | 3.2 | 0.0 | 0.00 | 0.00 | 0.00 | 43 | 1013.0 |
| 20260507042042 | 0 | 360 | 3.2 | 0.0 | 0.00 | 0.00 | 0.00 | 43 | 1013.0 |
| 20260507041542 | 0 | 360 | 3.2 | 0.0 | 0.00 | 0.00 | 0.00 | 43 | 1013.1 |
| 20260507041042 | 1 | 360 | 1.6 | 0.0 | 0.00 | 0.00 | 0.00 | 43 | 1013.1 |
| 20260507040542 | 0 | 360 | 1.6 | 0.0 | 0.00 | 0.00 | 0.00 | 43 | 1013.1 |
| 20260507035541 | 0 | 360 | 4.8 | 0.0 | 0.00 | 0.00 | 0.00 | 43 | 1013.2 |
| 20260507035041 | 1 | 360 | 4.8 | 0.0 | 0.00 | 0.00 | 0.00 | 42 | 1013.2 |
| 20260507034552 | 1 | 360 | 4.8 | 0.0 | 0.00 | 0.00 | 0.00 | 40 | 1013.1 |
| 20260507034041 | 1 | 360 | 6.4 | 0.0 | 0.00 | 0.00 | 0.00 | 40 | 1013.2 |
| 20260507033541 | 2 | 360 | 4.8 | 0.0 | 0.00 | 0.00 | 0.00 | 40 | 1013.2 |
| 20260507033043 | 2 | 360 | 4.8 | 0.0 | 0.00 | 0.00 | 0.00 | 39 | 1013.2 |
| 20260507032544 | 2 | 360 | 4.8 | 0.0 | 0.00 | 0.00 | 0.00 | 39 | 1013.2 |
| 20260507032041 | 2 | 360 | 6.4 | 0.0 | 0.00 | 0.00 | 0.00 | 38 | 1013.1 |
| 20260507031541 | 2 | 360 | 6.4 | 0.0 | 0.00 | 0.00 | 0.00 | 38 | 1013.2 |
| 20260507031041 | 2 | 360 | 6.4 | 0.0 | 0.00 | 0.00 | 0.00 | 37 | 1013.1 |
| 20260507030541 | 2 | 360 | 3.2 | 0.0 | 0.00 | 0.00 | 0.00 | 38 | 1013.1 |
| 20260507025539 | 1 | 360 | 1.6 | 0.0 | 0.00 | 0.00 | 0.00 | 39 | 1013.2 |
| 20260507025040 | 1 | 360 | 1.6 | 0.0 | 0.00 | 0.00 | 0.00 | 39 | 1013.1 |
| 20260507024540 | 2 | 360 | 1.6 | 0.0 | 0.00 | 0.00 | 0.00 | 38 | 1013.1 |
| 20260507024040 | 2 | 360 | 3.2 | 0.0 | 0.00 | 0.00 | 0.00 | 36 | 1013.0 |
| 20260507023539 | 3 | 360 | 3.2 | 0.0 | 0.00 | 0.00 | 0.00 | 35 | 1013.1 |
| 20260507023039 | 4 | 360 | 3.2 | 0.0 | 0.00 | 0.00 | 0.00 | 33 | 1013.1 |
| 20260507022539 | 4 | 360 | 3.2 | 0.0 | 0.00 | 0.00 | 0.00 | 32 | 1013.0 |
| 20260507022039 | 5 | 360 | 1.6 | 0.0 | 0.00 | 0.00 | 0.00 | 30 | 1013.0 |
| 20260507021538 | 6 | 360 | 1.6 | 0.0 | 0.00 | 0.00 | 0.00 | 29 | 1013.0 |
| 20260507021038 | 7 | 360 | 3.2 | 0.0 | 0.00 | 0.00 | 0.00 | 28 | 1013.0 |
| 20260507020539 | 8 | 360 | 3.2 | 0.0 | 0.00 | 0.00 | 0.00 | 27 | 1013.0 |
| 20260507015538 | 10 | 360 | 3.2 | 0.0 | 0.00 | 0.00 | 0.00 | 26 | 1013.0 |
| 20260507015038 | 10 | 360 | 4.8 | 0.0 | 0.00 | 0.00 | 0.00 | 25 | 1013.0 |
| 20260507014538 | 11 | 360 | 6.4 | 0.0 | 0.00 | 0.00 | 0.00 | 24 | 1013.1 |
| 20260507014038 | 11 | 360 | 8.0 | 0.0 | 0.00 | 0.00 | 0.00 | 23 | 1013.0 |
| 20260507013540 | 11 | 360 | 6.4 | 0.0 | 0.00 | 0.00 | 0.00 | 23 | 1013.1 |
| 20260507013039 | 12 | 360 | 8.0 | 0.0 | 0.00 | 0.00 | 0.00 | 22 | 1013.2 |
| 20260507012537 | 12 | 360 | 11.3 | 0.0 | 0.00 | 0.00 | 0.00 | 22 | 1013.2 |
| 20260507012037 | 12 | 360 | 11.3 | 0.0 | 0.00 | 0.00 | 0.00 | 22 | 1013.1 |
| 20260507011540 | 12 | 360 | 9.7 | 0.0 | 0.00 | 0.00 | 0.00 | 22 | 1013.1 |
| 20260507011036 | 12 | 360 | 8.0 | 0.0 | 0.00 | 0.00 | 0.00 | 22 | 1013.2 |
| 20260507010536 | 12 | 360 | 6.4 | 0.0 | 0.00 | 0.00 | 0.00 | 22 | 1013.2 |
| 20260507005535 | 13 | 360 | 4.8 | 0.0 | 0.00 | 0.00 | 0.00 | 22 | 1013.2 |
| 20260507005039 | 13 | 360 | 6.4 | 0.0 | 0.00 | 0.00 | 0.00 | 22 | 1013.3 |
| 20260507004536 | 13 | 360 | 8.0 | 0.0 | 0.00 | 0.00 | 0.00 | 22 | 1013.3 |
| 20260507004035 | 13 | 360 | 11.3 | 0.0 | 0.00 | 0.00 | 0.00 | 22 | 1013.3 |
| 20260507003537 | 13 | 360 | 12.9 | 0.0 | 0.00 | 0.00 | 0.00 | 22 | 1013.3 |
| 20260507003035 | 13 | 360 | 12.9 | 0.0 | 0.00 | 0.00 | 0.00 | 22 | 1013.2 |
| 20260507002534 | 13 | 360 | 12.9 | 0.0 | 0.00 | 0.00 | 0.00 | 21 | 1013.3 |
| 20260507002034 | 13 | 360 | 16.1 | 0.0 | 0.00 | 0.00 | 0.00 | 21 | 1013.3 |
| 20260507001546 | 13 | 360 | 16.1 | 0.0 | 0.00 | 0.00 | 0.00 | 21 | 1013.4 |
| 20260507001034 | 13 | 360 | 11.3 | 0.0 | 0.00 | 0.00 | 0.00 | 22 | 1013.4 |
| 20260507000533 | 13 | 360 | 9.7 | 0.0 | 0.00 | 0.00 | 0.00 | 22 | 1013.4 |
| 20260506235532 | 13 | 360 | 9.7 | 0.0 | 0.00 | 0.00 | 0.00 | 21 | 1013.6 |
| 20260506235032 | 13 | 360 | 11.3 | 0.0 | 0.00 | 0.00 | 0.00 | 21 | 1013.6 |
| 20260506234541 | 13 | 360 | 11.3 | 0.0 | 0.00 | 0.00 | 0.00 | 21 | 1013.7 |
| 20260506234031 | 13 | 360 | 12.9 | 0.0 | 0.00 | 0.00 | 0.00 | 21 | 1013.7 |
| 20260506233533 | 13 | 360 | 14.5 | 0.0 | 0.00 | 0.00 | 0.00 | 21 | 1013.7 |
| 20260506233033 | 13 | 360 | 12.9 | 0.0 | 0.00 | 0.00 | 0.00 | 21 | 1013.7 |
| 20260506232530 | 13 | 360 | 16.1 | 0.0 | 0.00 | 0.00 | 0.00 | 21 | 1013.8 |
| 20260506232030 | 13 | 360 | 17.7 | 0.0 | 0.00 | 0.00 | 0.00 | 21 | 1014.0 |
| 20260506231535 | 13 | 360 | 14.5 | 0.0 | 0.00 | 0.00 | 0.00 | 21 | 1013.9 |
| 20260506231030 | 13 | 360 | 16.1 | 0.0 | 0.00 | 0.00 | 0.00 | 21 | 1014.0 |
| 20260506230530 | 13 | 360 | 17.7 | 0.0 | 0.00 | 0.00 | 0.00 | 21 | 1014.0 |
| 20260506225531 | 13 | 360 | 11.3 | 0.0 | 0.00 | 0.00 | 0.00 | 21 | 1013.9 |
| 20260506225029 | 13 | 360 | 9.7 | 0.0 | 0.00 | 0.00 | 0.00 | 21 | 1013.9 |
| 20260506224530 | 13 | 360 | 14.5 | 0.0 | 0.00 | 0.00 | 0.00 | 21 | 1014.2 |
| 20260506224026 | 13 | 360 | 14.5 | 0.0 | 0.00 | 0.00 | 0.00 | 21 | 1014.3 |
| 20260506223526 | 13 | 360 | 14.5 | 0.0 | 0.00 | 0.00 | 0.00 | 21 | 1014.3 |
| 20260506223025 | 13 | 360 | 11.3 | 0.0 | 0.00 | 0.00 | 0.00 | 21 | 1014.3 |
| 20260506222525 | 13 | 360 | 9.7 | 0.0 | 0.00 | 0.00 | 0.00 | 22 | 1014.4 |
| 20260506222023 | 13 | 360 | 8.0 | 0.0 | 0.00 | 0.00 | 0.00 | 22 | 1014.4 |
| 20260506221523 | 13 | 360 | 8.0 | 0.0 | 0.00 | 0.00 | 0.00 | 22 | 1014.5 |
| 20260506221022 | 12 | 360 | 11.3 | 0.0 | 0.00 | 0.00 | 0.00 | 22 | 1014.6 |
| 20260506220521 | 12 | 360 | 12.9 | 0.0 | 0.00 | 0.00 | 0.00 | 23 | 1014.8 |
| 20260506215520 | 12 | 360 | 14.5 | 0.0 | 0.00 | 0.00 | 0.00 | 22 | 1015.0 |
| 20260506215020 | 12 | 360 | 12.9 | 0.0 | 0.00 | 0.00 | 0.00 | 23 | 1015.1 |
| 20260506214519 | 12 | 360 | 11.3 | 0.0 | 0.00 | 0.00 | 0.00 | 23 | 1015.1 |
| 20260506214019 | 12 | 360 | 14.5 | 0.0 | 0.00 | 0.00 | 0.00 | 22 | 1015.2 |
| 20260506213517 | 12 | 360 | 12.9 | 0.0 | 0.00 | 0.00 | 0.00 | 22 | 1015.3 |
| 20260506213021 | 12 | 360 | 11.3 | 0.0 | 0.00 | 0.00 | 0.00 | 22 | 1015.5 |
| 20260506212520 | 12 | 360 | 9.7 | 0.0 | 0.00 | 0.00 | 0.00 | 22 | 1015.6 |
| 20260506212016 | 12 | 360 | 8.0 | 0.0 | 0.00 | 0.00 | 0.00 | 23 | 1015.7 |
| 20260506211518 | 12 | 360 | 8.0 | 0.0 | 0.00 | 0.00 | 0.00 | 22 | 1015.7 |
| 20260506211014 | 12 | 360 | 12.9 | 0.0 | 0.00 | 0.00 | 0.00 | 22 | 1015.8 |
| 20260506210513 | 12 | 360 | 16.1 | 0.0 | 0.00 | 0.00 | 0.00 | 22 | 1015.9 |
| 20260506205512 | 12 | 360 | 14.5 | 0.0 | 0.00 | 0.00 | 0.00 | 22 | 1016.0 |
| 20260506205011 | 12 | 360 | 11.3 | 0.0 | 0.00 | 0.00 | 0.00 | 23 | 1016.1 |
| 20260506204511 | 11 | 360 | 12.9 | 0.0 | 0.00 | 0.00 | 0.00 | 23 | 1016.2 |
| 20260506204014 | 11 | 360 | 14.5 | 0.0 | 0.00 | 0.00 | 0.00 | 24 | 1016.3 |
| 20260506203509 | 11 | 360 | 14.5 | 0.0 | 0.00 | 0.00 | 0.00 | 23 | 1016.3 |
| 20260506203009 | 11 | 360 | 14.5 | 0.0 | 0.00 | 0.00 | 0.00 | 23 | 1016.4 |
| 20260506202509 | 12 | 360 | 12.9 | 0.0 | 0.00 | 0.00 | 0.00 | 23 | 1016.5 |
| 20260506202009 | 11 | 360 | 9.7 | 0.0 | 0.00 | 0.00 | 0.00 | 23 | 1016.5 |
| 20260506201508 | 11 | 360 | 11.3 | 0.0 | 0.00 | 0.00 | 0.00 | 24 | 1016.7 |
| 20260506201008 | 11 | 360 | 16.1 | 0.0 | 0.00 | 0.00 | 0.00 | 23 | 1016.8 |
| 20260506200507 | 11 | 360 | 12.9 | 0.0 | 0.00 | 0.00 | 0.00 | 24 | 1016.8 |
| 20260506195507 | 11 | 360 | 14.5 | 0.0 | 0.00 | 0.00 | 0.00 | 23 | 1016.9 |
| 20260506195007 | 11 | 360 | 12.9 | 0.0 | 0.00 | 0.00 | 0.00 | 23 | 1017.0 |
| 20260506194505 | 11 | 360 | 12.9 | 0.0 | 0.00 | 0.00 | 0.00 | 25 | 1017.2 |
| 20260506194003 | 11 | 360 | 11.3 | 0.0 | 0.00 | 0.00 | 0.00 | 25 | 1017.3 |
| 20260506193503 | 10 | 360 | 6.4 | 0.0 | 0.00 | 0.00 | 0.00 | 26 | 1017.2 |
| 20260506193002 | 10 | 360 | 9.7 | 0.0 | 0.00 | 0.00 | 0.00 | 25 | 1017.4 |
| 20260506192502 | 10 | 360 | 12.9 | 0.0 | 0.00 | 0.00 | 0.00 | 26 | 1017.4 |
| 20260506192002 | 10 | 360 | 14.5 | 0.0 | 0.00 | 0.00 | 0.00 | 25 | 1017.5 |
| 20260506191503 | 11 | 360 | 8.0 | 0.0 | 0.00 | 0.00 | 0.00 | 23 | 1017.6 |
| 20260506191100 | 10 | 360 | 6.4 | 0.0 | 0.00 | 0.00 | 0.00 | 26 | 1017.6 |
| 20260506190600 | 10 | 360 | 8.0 | 0.0 | 0.00 | 0.00 | 0.00 | 24 | 1017.8 |
| 20260506185558 | 10 | 360 | 9.7 | 0.0 | 0.00 | 0.00 | 0.00 | 26 | 1017.9 |
| 20260506185058 | 10 | 360 | 8.0 | 0.0 | 0.00 | 0.00 | 0.00 | 25 | 1018.1 |
| 20260506184602 | 10 | 360 | 11.3 | 0.0 | 0.00 | 0.00 | 0.00 | 25 | 1018.2 |
| 20260506184057 | 10 | 360 | 16.1 | 0.0 | 0.00 | 0.00 | 0.00 | 24 | 1018.3 |
| 20260506183557 | 10 | 360 | 16.1 | 0.0 | 0.00 | 0.00 | 0.00 | 24 | 1018.4 |
| 20260506183103 | 10 | 360 | 12.9 | 0.0 | 0.00 | 0.00 | 0.00 | 26 | 1018.4 |
| 20260506182554 | 10 | 360 | 9.7 | 0.0 | 0.00 | 0.00 | 0.00 | 26 | 1018.5 |
| 20260506182053 | 10 | 360 | 11.3 | 0.0 | 0.00 | 0.00 | 0.00 | 26 | 1018.7 |
| 20260506181559 | 10 | 360 | 12.9 | 0.0 | 0.00 | 0.00 | 0.00 | 26 | 1018.8 |
| 20260506181052 | 10 | 360 | 12.9 | 0.0 | 0.00 | 0.00 | 0.00 | 27 | 1018.9 |
| 20260506180551 | 10 | 360 | 8.0 | 0.0 | 0.00 | 0.00 | 0.00 | 26 | 1019.0 |
| 20260506175553 | 8 | 360 | 9.7 | 0.0 | 0.00 | 0.00 | 0.00 | 29 | 1019.1 |
| 20260506175055 | 9 | 360 | 11.3 | 0.0 | 0.00 | 0.00 | 0.00 | 29 | 1019.2 |
| 20260506174605 | 8 | 360 | 11.3 | 0.0 | 0.00 | 0.00 | 0.00 | 29 | 1019.3 |
| 20260506174052 | 9 | 360 | 9.7 | 0.0 | 0.00 | 0.00 | 0.00 | 29 | 1019.4 |
| 20260506173549 | 8 | 360 | 12.9 | 0.0 | 0.00 | 0.00 | 0.00 | 29 | 1019.4 |
| 20260506173054 | 9 | 360 | 14.5 | 0.0 | 0.00 | 0.00 | 0.00 | 29 | 1019.5 |
| 20260506172547 | 9 | 360 | 12.9 | 0.0 | 0.00 | 0.00 | 0.00 | 29 | 1019.5 |
| 20260506172047 | 8 | 360 | 12.9 | 0.0 | 0.00 | 0.00 | 0.00 | 29 | 1019.5 |
| 20260506171545 | 8 | 360 | 12.9 | 0.0 | 0.00 | 0.00 | 0.00 | 29 | 1019.6 |
| 20260506171045 | 8 | 360 | 12.9 | 0.0 | 0.00 | 0.00 | 0.00 | 31 | 1019.8 |
| 20260506170545 | 8 | 360 | 11.3 | 0.0 | 0.00 | 0.00 | 0.00 | 34 | 1019.8 |
| 20260506165542 | 8 | 360 | 11.3 | 0.0 | 0.00 | 0.00 | 0.00 | 34 | 1019.9 |
| 20260506165041 | 8 | 360 | 11.3 | 0.0 | 0.00 | 0.00 | 0.00 | 35 | 1020.0 |
| 20260506164547 | 7 | 360 | 11.3 | 0.0 | 0.00 | 0.00 | 0.00 | 34 | 1020.1 |
| 20260506164039 | 7 | 360 | 11.3 | 0.0 | 0.00 | 0.00 | 0.00 | 35 | 1020.1 |
| 20260506163539 | 7 | 360 | 9.7 | 0.0 | 0.00 | 0.00 | 0.00 | 36 | 1020.2 |
| 20260506163055 | 7 | 360 | 9.7 | 0.0 | 0.00 | 0.00 | 0.00 | 37 | 1020.3 |
| 20260506162538 | 7 | 360 | 8.0 | 0.0 | 0.00 | 0.00 | 0.00 | 37 | 1020.4 |
| 20260506162037 | 7 | 360 | 8.0 | 0.0 | 0.00 | 0.00 | 0.00 | 39 | 1020.4 |
| 20260506161537 | 7 | 360 | 8.0 | 0.0 | 0.00 | 0.00 | 0.00 | 41 | 1020.4 |
| 20260506161037 | 6 | 360 | 6.4 | 0.0 | 0.00 | 0.00 | 0.00 | 42 | 1020.5 |
| 20260506160535 | 7 | 360 | 4.8 | 0.0 | 0.00 | 0.00 | 0.00 | 42 | 1020.4 |
| 20260506155535 | 6 | 360 | 8.0 | 0.0 | 0.00 | 0.00 | 0.00 | 43 | 1020.6 |
| 20260506155038 | 6 | 360 | 9.7 | 0.0 | 0.00 | 0.00 | 0.00 | 43 | 1020.7 |
| 20260506154538 | 6 | 360 | 9.7 | 0.0 | 0.00 | 0.00 | 0.00 | 44 | 1020.8 |
| 20260506154033 | 6 | 360 | 11.3 | 0.0 | 0.00 | 0.00 | 0.00 | 44 | 1020.8 |
| 20260506153534 | 6 | 360 | 9.7 | 0.0 | 0.00 | 0.00 | 0.00 | 44 | 1020.8 |
| 20260506153033 | 6 | 360 | 8.0 | 0.0 | 0.00 | 0.00 | 0.00 | 46 | 1021.0 |
| 20260506152531 | 6 | 360 | 8.0 | 0.0 | 0.00 | 0.00 | 0.00 | 46 | 1021.0 |